EW3061 Weather Reports


Display with metric or nautical units.
time (UTC)temp
F
wind
direction
speed
MPH
gust
MPH
rain 1hr
in
rain 24hr
in
rain mn
in
humidity
%
barometer
mb
20260509034017 56 0.0 0.0 0.03 0.12 0.12 1 1011.9
20260509033016 56 0.0 0.0 0.03 0.11 0.11 1 1012.0
20260509032017 55 0.0 0.0 0.05 0.11 0.11 1 1012.0
20260509031016 55 0.0 0.0 0.06 0.11 0.11 1 1012.0
20260509030016 56 0.0 0.0 0.06 0.10 0.10 1 1012.0
20260509025037 56 0.0 0.0 0.07 0.10 0.10 1 1011.9
20260509024017 56 0.0 0.0 0.07 0.09 0.09 1 1011.9
20260509023017 56 0.0 0.0 0.07 0.08 0.08 1 1011.9
20260509022017 56 0.0 0.0 0.06 0.06 0.06 1 1011.9
20260509021017 56 0.0 0.0 0.05 0.05 0.05 1 1012.0
20260509020016 56 0.0 0.0 0.04 0.04 0.04 1 1012.0
20260509015056 56 0.0 0.0 0.03 0.03 0.03 1 1012.0
20260509014036 56 0.0 0.0 0.02 0.02 0.02 3 1012.0
20260509013017 56 0.0 0.0 0.01 0.01 0.01 14 1012.2
20260509012036 57 0.0 0.0 0.00 0.00 0.00 21 1012.1
20260509011016 57 0.0 0.0 0.00 0.00 0.00 29 1011.7
20260509010036 57 0.0 0.0 0.00 0.00 0.00 34 1011.1
20260509005017 57 0.0 0.0 0.00 0.00 0.00 39 1011.0
20260509004016 58 0.0 0.0 0.00 0.00 0.00 48 1010.8
20260509003016 58 0.0 1.0 0.00 0.00 0.00 51 1010.9
20260509002017 59 0.0 0.0 0.00 0.00 0.00 58 1010.9
20260509001016 59 0.0 0.0 0.00 0.00 0.00 61 1010.9
20260509000016 60 0.0 0.0 0.00 0.00 0.00 64 1011.0
20260508235016 60 0.0 0.0 0.00 0.00 0.00 67 1011.0
20260508234016 61 0.0 0.0 0.00 0.00 0.00 68 1011.3
20260508233016 63 0.0 0.0 0.00 0.00 0.00 66 1011.2
20260508232016 63 0.0 0.0 0.00 0.00 0.00 64 1011.0
20260508231016 64 0.0 0.0 0.00 0.00 0.00 62 1010.6
20260508230016 64 0.0 0.0 0.00 0.00 0.00 62 1010.6
20260508225016 64 0.0 0.0 0.00 0.00 0.00 63 1010.8
20260508224016 63 0.0 0.0 0.00 0.00 0.00 65 1010.8
20260508223016 63 0.0 0.0 0.00 0.00 0.00 64 1010.6
20260508222016 63 0.0 0.0 0.00 0.00 0.00 63 1010.6
20260508221016 63 0.0 0.0 0.00 0.00 0.00 62 1010.8
20260508220016 64 0.0 0.0 0.00 0.00 0.00 60 1010.8
20260508215016 64 0.0 0.0 0.00 0.00 0.00 61 1010.9
20260508214036 64 0.0 0.0 0.00 0.00 0.00 60 1010.7
20260508213016 65 0.0 0.0 0.00 0.00 0.00 59 1010.8
20260508212016 65 0.0 0.0 0.00 0.00 0.00 58 1011.0
20260508211016 65 0.0 0.0 0.00 0.00 0.00 56 1011.0
20260508210016 65 0.0 0.0 0.00 0.00 0.00 54 1011.1
20260508205016 66 0.0 0.0 0.00 0.00 0.00 53 1011.0
20260508204016 66 0.0 0.0 0.00 0.00 0.00 53 1011.2
20260508203016 66 0.0 0.0 0.00 0.00 0.00 53 1011.3
20260508202016 66 0.0 0.0 0.00 0.00 0.00 52 1011.6
20260508201016 66 0.0 0.0 0.00 0.00 0.00 54 1011.8
20260508200016 66 0.0 0.0 0.00 0.00 0.00 56 1012.0
20260508195036 66 0.0 0.0 0.00 0.00 0.00 54 1012.1
20260508194016 66 0.0 0.0 0.00 0.00 0.00 53 1012.5
20260508193016 67 0.0 0.0 0.00 0.00 0.00 52 1012.4
20260508192016 67 0.0 0.0 0.00 0.00 0.00 54 1012.7
20260508191016 67 0.0 0.0 0.00 0.00 0.00 51 1012.7
20260508190016 67 0.0 0.0 0.00 0.00 0.00 51 1012.7
20260508185016 67 0.0 0.0 0.00 0.00 0.00 48 1012.9
20260508184016 67 0.0 0.0 0.00 0.00 0.00 49 1012.9
20260508183016 67 0.0 1.0 0.00 0.00 0.00 49 1013.0
20260508182016 67 0.0 0.0 0.00 0.00 0.00 50 1013.1
20260508181116 68 0.0 0.0 0.00 0.00 0.00 53 1013.2
20260508180016 68 0.0 0.0 0.00 0.00 0.00 53 1013.7
20260508175016 67 0.0 0.0 0.00 0.00 0.00 53 1013.4
20260508174016 65 0.0 0.0 0.00 0.00 0.00 57 1013.8
20260508173016 64 0.0 0.0 0.00 0.00 0.00 58 1013.9
20260508172016 65 0.0 0.0 0.00 0.00 0.00 57 1014.2
20260508171016 64 0.0 0.0 0.00 0.00 0.00 56 1014.4
20260508170016 64 0.0 0.0 0.00 0.00 0.00 58 1014.5
20260508165016 64 0.0 0.0 0.00 0.00 0.00 58 1014.6
20260508164016 64 0.0 0.0 0.00 0.00 0.00 59 1014.8
20260508163016 63 0.0 0.0 0.00 0.00 0.00 59 1014.9
20260508162036 64 0.0 0.0 0.00 0.00 0.00 57 1015.1
20260508161016 63 0.0 0.0 0.00 0.00 0.00 57 1015.0
20260508160036 64 0.0 0.0 0.00 0.00 0.00 60 1015.3
20260508155016 64 0.0 0.0 0.00 0.00 0.00 58 1015.3
20260508154016 64 0.0 0.0 0.00 0.00 0.00 60 1015.3
20260508153016 63 0.0 0.0 0.00 0.00 0.00 61 1015.4
20260508152016 63 0.0 0.0 0.00 0.00 0.00 60 1015.2
20260508151156 62 0.0 0.0 0.00 0.00 0.00 57 1015.1
20260508150016 61 0.0 0.0 0.00 0.00 0.00 62 1015.3
20260508145035 61 0.0 0.0 0.00 0.00 0.00 60 1015.4
20260508144016 60 0.0 1.0 0.00 0.00 0.00 61 1015.6
20260508143036 60 0.0 0.0 0.00 0.00 0.00 61 1015.8
20260508142016 59 0.0 0.0 0.00 0.00 0.00 60 1015.7
20260508141115 59 0.0 0.0 0.00 0.00 0.00 63 1015.8
20260508140015 58 0.0 0.0 0.00 0.00 0.00 62 1015.8
20260508135016 58 0.0 1.0 0.00 0.00 0.00 60 1016.0
20260508134035 57 0.0 0.0 0.00 0.00 0.00 62 1016.1
20260508133015 57 0.0 0.0 0.00 0.00 0.00 61 1016.1
20260508132016 56 0.0 0.0 0.00 0.00 0.00 61 1016.1
20260508131015 56 0.0 0.0 0.00 0.00 0.00 62 1016.1
20260508130016 55 0.0 0.0 0.00 0.00 0.00 62 1016.0
20260508125015 54 0.0 0.0 0.00 0.00 0.00 62 1016.1
20260508124016 54 0.0 0.0 0.00 0.00 0.00 63 1015.9
20260508123016 53 0.0 0.0 0.00 0.00 0.00 63 1015.8
20260508122015 53 0.0 0.0 0.00 0.00 0.00 64 1015.8
20260508121055 52 0.0 0.0 0.00 0.00 0.00 65 1015.7
20260508120035 51 0.0 0.0 0.00 0.00 0.00 65 1015.7
20260508115015 50 0.0 0.0 0.00 0.00 0.00 67 1015.5
20260508114015 50 0.0 0.0 0.00 0.00 0.00 67 1015.5
20260508113016 49 0.0 0.0 0.00 0.00 0.00 69 1015.4
20260508112015 49 0.0 0.0 0.00 0.00 0.00 69 1015.3
20260508111016 49 0.0 0.0 0.00 0.00 0.00 69 1015.1
20260508110015 49 0.0 0.0 0.00 0.00 0.00 69 1015.2
20260508105015 49 0.0 0.0 0.00 0.00 0.00 68 1015.3
20260508104036 49 0.0 0.0 0.00 0.00 0.00 68 1015.2
20260508103015 50 0.0 0.0 0.00 0.00 0.00 67 1015.2
20260508102015 50 0.0 0.0 0.00 0.00 0.00 67 1015.3
20260508101015 50 0.0 0.0 0.00 0.00 0.00 67 1015.4
20260508100015 50 0.0 0.0 0.00 0.00 0.00 66 1015.3
20260508095015 50 0.0 0.0 0.00 0.00 0.00 67 1015.4
20260508094015 50 0.0 0.0 0.00 0.00 0.00 67 1015.4
20260508093015 51 0.0 0.0 0.00 0.00 0.00 66 1015.4
20260508092015 51 0.0 0.0 0.00 0.00 0.00 65 1015.5
20260508091015 51 0.0 0.0 0.00 0.00 0.00 64 1015.5
20260508090015 51 0.0 0.0 0.00 0.00 0.00 63 1015.5
20260508085015 52 0.0 0.0 0.00 0.00 0.00 63 1015.5
20260508084035 52 0.0 0.0 0.00 0.00 0.00 62 1015.4
20260508083015 52 0.0 0.0 0.00 0.00 0.00 62 1015.6
20260508082015 52 0.0 0.0 0.00 0.00 0.00 61 1015.6
20260508081015 52 0.0 0.0 0.00 0.00 0.00 63 1015.5
20260508080015 51 0.0 0.0 0.00 0.00 0.00 61 1015.6
20260508075015 51 0.0 0.0 0.00 0.00 0.00 61 1015.7
20260508074015 52 0.0 0.0 0.00 0.00 0.00 61 1015.7
20260508073015 52 0.0 0.0 0.00 0.00 0.00 61 1015.7
20260508072015 52 0.0 0.0 0.00 0.00 0.00 61 1015.7
20260508071015 52 0.0 0.0 0.00 0.00 0.00 61 1015.6
20260508070015 52 0.0 0.0 0.00 0.00 0.00 60 1015.7
20260508065035 52 0.0 0.0 0.00 0.00 0.00 60 1015.9
20260508064015 52 0.0 0.0 0.00 0.00 0.00 60 1016.0
20260508063015 52 0.0 0.0 0.00 0.00 0.00 60 1016.1
20260508062017 52 0.0 0.0 0.00 0.00 0.00 60 1016.1
20260508061017 52 0.0 0.0 0.00 0.00 0.00 60 1016.2
20260508060017 52 0.0 0.0 0.00 0.00 0.00 61 1016.3
20260508055017 52 0.0 0.0 0.00 0.00 0.00 62 1016.2
20260508054017 52 0.0 0.0 0.00 0.00 0.00 61 1016.5
20260508053017 52 0.0 0.0 0.00 0.00 0.00 61 1016.5
20260508052017 52 0.0 0.0 0.00 0.00 0.00 62 1016.3
20260508051017 52 0.0 0.0 0.00 0.00 0.00 62 1016.3
20260508050057 52 0.0 0.0 0.00 0.00 0.00 62 1016.3
20260508045015 53 0.0 0.0 0.00 0.00 0.00 61 1016.2
20260508044017 52 0.0 0.0 0.00 0.00 0.00 61 1016.1
20260508043017 52 0.0 0.0 0.00 0.00 0.00 61 1016.1
20260508042017 52 0.0 0.0 0.00 0.00 0.00 61 1016.2
20260508041017 52 0.0 0.0 0.00 0.00 0.00 63 1016.2
20260508040037 52 0.0 0.0 0.00 0.00 0.00 62 1016.1
20260508035017 52 0.0 0.0 0.00 0.00 0.00 63 1016.0